Regional Weather Roundup
Issued by NWS

Home | Current Version | Previous Version | Text Only | Print | Product List | Glossary Off
Versions: 1 2 3 4 5 6 7 8 9 10 11 12 13 14 15 16 17 18 19 20 21 22 23 24 25 26 27 28 29 30 31 32 33 34 35 36 37 38 39 40 41 42 43 44 45 46 47 48 49 50

000
ASUS43 KIND 010459
RWRIN

WEATHER ROUNDUP FOR INDIANA
NATIONAL WEATHER SERVICE INDIANAPOLIS IN
100 AM EDT SAT OCT 01 2016

NOTE: "FAIR" INDICATES FEW OR NO CLOUDS BELOW 12,000 FEET WITH NO
SIGNIFICANT WEATHER AND/OR OBSTRUCTIONS TO VISIBILITY.

* - STATION DOES NOT REPORT WEATHER SUCH AS PRECIPITATION OR FOG.

+ - STATION NOT QUALITY CONTROLLED BY THE NATIONAL WEATHER SERVICE.
    USE DATA WITH CAUTION...ESPECIALLY DEWPOINT AND RELATIVE
    HUMIDITY OBSERVATIONS.

INZ001>003-010>013-019-020-010600-
NORTHWEST INDIANA

CITY           SKY/WX    TMP DP  RH WIND       PRES   REMARKS

$$

LMZ046-743>745-010600-
SOUTHERN LAKE MICHIGAN

STATION/POSITION TIME  TEMP    WIND        PRES    WAVE
                       AIR SEA DIR/SP/G            HT
                 (UTC) (F)     (DEG/KT/KT) (MB)    (FT)
BURNS HARBOR     0440   60      90/  7/ 10 1017.6S
MICHIGAN CITY    0430   59      70/ 11/ 13   N/A
5NW MICH CITY    0450   61 64  100/ 12/ 16   N/A     4

$$

INZ004-005-014>016-021>024-010600-
NORTH CENTRAL INDIANA

CITY           SKY/WX    TMP DP  RH WIND       PRES   REMARKS
GOSHEN         CLOUDY    60  56  86 NE5       30.04F
PERU/GRISSOM   DRIZZLE   59  59 100 NE9       30.00F
SOUTH BEND     CLOUDY    59  57  93 E7        30.06F

$$

INZ006>009-017-018-025>027-010600-
NORTHEAST INDIANA

CITY           SKY/WX    TMP DP  RH WIND       PRES   REMARKS
ANGOLA *+        N/A     59  48  67 E6        30.05S
FORT WAYNE     DRIZZLE   59  57  93 NE9       30.03F FOG
KENDALLVILLE + CLOUDY    59  58  98 E6        30.04F

$$

INZ028-029-035-036-043>045-051>053-010600-
WEST CENTRAL INDIANA

CITY           SKY/WX    TMP DP  RH WIND       PRES   REMARKS
CRAWFORDSVL +  CLOUDY    56  56 100 E3        30.00S
LAFAYETTE      CLOUDY    60  59  96 NE9       29.99F
TERRE HAUTE    CLOUDY    58  56  93 CALM      30.00S

$$

INZ030>032-037>040-046>048-054>057-064-065-010600-
CENTRAL INDIANA

CITY           SKY/WX    TMP DP  RH WIND       PRES   REMARKS
INDIANAPOLIS   MOCLDY    56  55  97 S3        30.01R
-EAGLE CREEK   CLOUDY    59  56  89 CALM      30.01R
KOKOMO *+      CLOUDY    59  58  96 E5        30.02S
MT COMFORT *+  CLOUDY    55  54  94 CALM      30.02R
SHELBYVILLE    CLOUDY    56  51  84 SW3       30.01R

$$

INZ033-034-041-042-049-050-058-059-010600-
EAST CENTRAL INDIANA

CITY           SKY/WX    TMP DP  RH WIND       PRES   REMARKS
MUNCIE         CLOUDY    60  57  89 SW5       30.01S

$$

INZ060-061-067>069-081>083-085>088-010600-
SOUTHWEST INDIANA

CITY           SKY/WX    TMP DP  RH WIND       PRES   REMARKS
EVANSVILLE     CLOUDY    57  55  93 CALM      30.01S FOG
HUNTINGBURG *+   N/A     52  48  87 NE3       30.01F

$$

INZ062-063-066-070>080-084-089>092-010600-
SOUTH CENTRAL AND SOUTHEAST INDIANA

CITY           SKY/WX    TMP DP  RH WIND       PRES   REMARKS
BLOOMINGTON    PTCLDY    51  48  89 CALM      30.01S
MADISON *+     MOCLDY    54  54 100 CALM      30.04S
SEYMOUR +      CLOUDY    54  52  94 CALM      30.02S

$$





USA.gov is the U.S. government's official web portal to all federal, state and local government web resources and services.